Carlsbad, NM

8:41 AM MDT on May 25, 2017 (GMT -0600)
Cavern City

Weather History for KCNM - January, 2013

Change the Weather History Date:

Wednesday, January 2, 2013

  Actual Average Record
Temperature  
Mean Temperature 38 °F -  
Max Temperature 46 °F 52 °F 77 °F (1997)
Min Temperature 30 °F 25 °F 0 °F (1979)
Degree Days  
Heating Degree Days 27    
Moisture  
Dew Point 21 °F    
Average Humidity 51    
Maximum Humidity 67    
Minimum Humidity 37    
Precipitation  
Precipitation 0.00 in - - ()
Sea Level Pressure  
Sea Level Pressure 30.21 in    
Wind  
Wind Speed 4 mph (NW)    
Max Wind Speed 7 mph    
Max Gust Speed -    
Visibility 10 miles    
Events      
Averages and records for this station are not official NWS values.
T = Trace of Precipitation, MM = Missing Value Source: NWS Daily Summary

Daily Weather History Graph

Daily Weather History Graph

Search for Another Location

Airport or City:

Trip Planner

Search our weather history database for the weather conditions in past years. The results will help you decide how hot, cold, wet, or windy it might be!

Date:

Astronomy

Jan. 02, 2013 Rise Set
Actual Time 6:58 AM MST 5:04 PM MST
Civil Twilight 6:31 AM MST 5:31 PM MST
Nautical Twilight 6:01 AM MST 6:01 PM MST
Astronomical Twilight 5:31 AM MST 6:31 PM MST
Moon 10:18 PM MST (1/2) 10:00 AM MST (1/2)
Length of Visible Light 10h 59m
Length of Day
10h 05m
Waning Gibbous, 74% of the Moon is Illuminated
Jan 2
Waning Gibbous
Jan 4
Last Quarter
Jan 11
New
Jan 18
First Quarter
Jan 26
Full

Hourly Weather History & Observations

Time (MST) Temp. Windchill Dew Point Humidity Pressure Visibility Wind Dir Wind Speed Gust Speed Precip Events Conditions
12:53 AM - - - N/A% 30.22 in 10.0 mi South 5.8 mph - N/A   Clear
1:53 AM - - - N/A% 30.22 in 10.0 mi SE 3.5 mph - N/A   Clear
2:53 AM - - - N/A% 30.20 in 10.0 mi SSE 3.5 mph - N/A   Clear
3:53 AM - - - N/A% 30.21 in 10.0 mi NW 4.6 mph - N/A   Clear
4:53 AM - - - N/A% 30.21 in 10.0 mi Calm Calm - N/A   Clear
5:53 AM - - - N/A% 30.22 in 10.0 mi WNW 6.9 mph - N/A   Clear
6:53 AM - - - N/A% 30.24 in 10.0 mi WNW 6.9 mph - N/A   Clear
7:53 AM - - - N/A% 30.25 in 10.0 mi Calm Calm - N/A   Clear
8:53 AM - - - N/A% 30.26 in 10.0 mi NNW 4.6 mph - N/A   Clear
9:53 AM - - - N/A% 30.26 in 10.0 mi Calm Calm - N/A   Clear
10:53 AM - - - N/A% 30.25 in 10.0 mi NE 3.5 mph - N/A   Clear
11:53 AM 41.0 °F - 23.0 °F 49% 30.21 in 10.0 mi Calm Calm - N/A   Clear
12:53 PM 44.1 °F 40.8 °F 23.0 °F 43% 30.16 in 10.0 mi NE 5.8 mph - N/A   Clear
1:53 PM 45.0 °F - 23.0 °F 42% 30.15 in 10.0 mi Calm Calm - N/A   Clear
2:53 PM 46.9 °F - 23.0 °F 39% 30.14 in 10.0 mi East 3.5 mph - N/A   Clear
3:53 PM 46.9 °F - 21.9 °F 37% 30.14 in 10.0 mi Calm Calm - N/A   Clear
4:53 PM 44.1 °F - 21.0 °F 40% 30.14 in 10.0 mi Calm Calm - N/A   Clear
5:53 PM 39.9 °F - 21.0 °F 47% 30.15 in 10.0 mi Calm Calm - N/A   Clear
6:53 PM 33.1 °F 26.9 °F 21.0 °F 61% 30.18 in 10.0 mi WNW 6.9 mph - N/A   Clear
7:53 PM 30.9 °F 24.3 °F 21.0 °F 67% 30.20 in 10.0 mi WNW 6.9 mph - N/A   Clear
8:53 PM 30.0 °F 24.1 °F 19.0 °F 64% 30.22 in 10.0 mi NW 5.8 mph - N/A   Clear
9:53 PM 30.2 °F 24.3 °F 15.8 °F 55% 30.24 in 10.0 mi NNW 5.8 mph - N/A   Mostly Cloudy
10:53 PM 30.9 °F 24.3 °F 17.1 °F 57% 30.25 in 10.0 mi NNW 6.9 mph - N/A   Clear
11:53 PM 32.0 °F 26.4 °F 19.0 °F 59% 30.25 in 10.0 mi WNW 5.8 mph - N/A   Overcast